星链-3261 (STARLINK-3261 )

导读

STARLINK-3261是美国太空探索技术公司(SpaceX)星链计划的组成卫星,于北京时间2021年12月18日08时发射升空。作为星链星座批量部署的卫星之一,它主要服务于全球卫星互联网组网,为偏远地区、海洋等场景提供高速低延迟互联网接入服务,推进星链全球通信网络的覆盖进程。

Basic Information
目录编号:
50193
目录名称:
STARLINK-3261
国际标识:
2021-125AP
轨道中心:
EARTH
卫星名称:
星链-3261
卫星全名:
星链-3261 (STARLINK-3261 )
卫星状态:
在轨 (已飞行1721 天)
发射日期:
2021-12-18 UTC
国别 :
美国 (US)
星等 :
--
Orbit Information
数据来源 国际轨道数据
星历时间: 2026-09-04T11:45:59+0800
4小时前
查看轨道信息
半长轴: 6848.863km
偏心率: 0.0001436
轨道倾角: 53.160°
近地点辐角 92.481°
升交点赤经 148.927°
平近点角 267.635°
近地点: 469.742km
远地点: 471.71km
周期: 94.013分钟
每日圈数: 15.317048
Detailed Information
固有亮度:
5
最大亮度:
2.5
卫星平台:
Starlink v1.5
覆盖范围:
全球
运营商:
太空探索技术公司
运营商所在国:
美国
制造商(研发单位):
太空探索技术公司
制造商所在国:
美国
使用方式:
暂无
Satellite Introduction
星链(Starlink)计划是由太空探索技术公司(SpaceX)提出的一个巨型低轨卫星互联网星座项目,计划在2019年至2024年间在太空搭建由约1.2万颗卫星组成的“星链”网络,其中1584颗将部署在地球上空550千米处的近地轨道,并从2020年开始工作。该卫星仍在工作。
2D Orbit Map
3D Orbit Map
Orbit Altitude Analysis Chart
Orbit Inclination Analysis Chart
Orbit Comprehensive Analysis Chart
View Comprehensive Chart
Conjunction Data List
Event ID Objects TCA Miss Dist (km) Collision Risk Probability Collision Risk Index (CRI) Action
CDM_260904-233905-019306-489521
OBJECT V (64895)
2026-09-04T
23:39:28+0000
0.994 km
远距离
2.075974E-5 中风险 0.61
CDM_260904-185705-019306-488221
OBJECT G (64882)
2026-09-04T
18:57:24+0000
1.007 km
极远距离
1.968934E-5 中风险 0.61
CDM_260905-062405-019306-189522
OBJECT B (61895)
2026-09-05T
06:24:25+0000
1.902 km
极远距离
3.261923E-6 低风险 0.45
CDM_260905-053905-019306-266122
2026-09-05T
05:39:26+0000
2.021 km
极远距离
2.778733E-6 低风险 0.44
CDM_260906-084205-019306-815521
2026-09-06T
08:42:35+0000
2.531 km
极远距离
1.634326E-6 低风险 0.39
CDM_260906-001105-019306-965421
2026-09-06T
00:11:24+0000
2.782 km
极远距离
1.454629E-6 低风险 0.38
CDM_260904-120805-019306-416821
2026-09-04T
12:08:51+0000
2.929 km
极远距离
1.350221E-6 低风险 0.38
CDM_260828-012605-019306-890921
2026-08-28T
01:26:30+0000
2.983 km
极远距离
1.218169E-6 低风险 0.37
CDM_260904-081205-019306-238321
2026-09-04T
08:12:46+0000
2.797 km
极远距离
9.27887E-7 极低风险 0.34
CDM_260905-180605-019306-755421
2026-09-05T
18:06:22+0000
2.740 km
极远距离
8.824786E-7 极低风险 0.34